User: anonymous   Login
Location: Prague
(50.0830°N, 14.4670°E)
Time: 05:51:18
(UTC+02:00)
Language:

XW-2F - Orbit

View from above orbital plane
View from above orbital plane
View from above satellite
View from above satellite

Ground track
Ground track

The orbit data is extracted from the following two-line orbital elements,

1 40910U 15049M   22274.77763374  .00012203  00000-0  49458-3 0  9995
2 40910  97.4748 281.4584 0011138 331.7148 114.4336 15.24741146389375
Epoch (UTC): 01 October 2022 18:39:47
Eccentricity: 0.0011138
inclination: 97.4748°
perigee height: 484 km
apogee height: 499 km
right ascension of ascending node: 281.4584°
argument of perigee: 331.7148°
revolutions per day: 15.24741146
mean anomaly at epoch: 114.4336°
orbit number at epoch: 38937

The dashed part of the orbit path shows where the satellite is in the earth's shadow,  

DLR